TimeCEST,TemperatureF,Dew PointF,Humidity,Sea Level PressureIn,VisibilityMPH,Wind Direction,Wind SpeedMPH,Gust SpeedMPH,PrecipitationIn,Events,Conditions,WindDirDegrees,DateUTC
12:00 AM,51.8,50.0,94,29.95,6.2,North,5.8,-,N/A,Rain,Light Rain,360,2012-10-06 22:00:00
12:04 AM,51.8,50.0,94,29.95,6.2,North,6.9,-,N/A,Rain,Light Rain,10,2012-10-06 22:04:00
12:11 AM,51.8,50.0,94,29.95,6.2,North,6.9,-,N/A,Rain,Light Rain,10,2012-10-06 22:11:00
12:30 AM,51.8,50.0,94,29.95,6.2,North,5.8,-,N/A,Rain,Light Rain,10,2012-10-06 22:30:00
12:48 AM,50.0,50.0,100,29.95,6.2,North,4.6,-,N/A,Rain,Light Rain,350,2012-10-06 22:48:00
12:49 AM,50.0,50.0,100,29.95,6.2,North,4.6,-,N/A,Rain,Light Rain,350,2012-10-06 22:49:00
1:00 AM,50.0,50.0,100,29.95,6.2,North,4.6,-,N/A,Rain,Light Rain,350,2012-10-06 23:00:00
1:16 AM,50.0,50.0,100,29.95,6.2,North,3.5,-,N/A,Rain,Light Rain,10,2012-10-06 23:16:00
1:30 AM,50.0,50.0,100,29.95,6.2,North,3.5,-,N/A,Rain,Light Rain,10,2012-10-06 23:30:00
1:43 AM,50.0,48.2,94,29.95,3.7,NE,6.9,-,N/A,Rain,Rain,40,2012-10-06 23:43:00
2:00 AM,49,49,98,29.98,4,NE,6.7,,,Rain,Light Rain,50,2012-10-07 00:00:00
2:00 AM,50.0,48.2,94,29.95,4.3,NE,8.1,-,N/A,Rain,Rain,50,2012-10-07 00:00:00
2:30 AM,48.2,48.2,100,29.95,5.0,NE,8.1,-,N/A,Rain,Light Rain,50,2012-10-07 00:30:00
3:00 AM,48.2,46.4,93,29.95,5.0,NNE,6.9,-,N/A,Rain,Light Rain,30,2012-10-07 01:00:00
3:24 AM,48.2,46.4,93,29.95,3.1,NNE,9.2,-,N/A,Rain,Light Rain,30,2012-10-07 01:24:00
3:30 AM,48.2,46.4,93,29.95,3.1,NE,8.1,-,N/A,Rain,Light Rain,40,2012-10-07 01:30:00
3:35 AM,46.4,46.4,100,29.95,3.7,NE,8.1,-,N/A,Rain,Light Rain,40,2012-10-07 01:35:00
4:00 AM,46.4,46.4,100,29.92,3.1,NE,6.9,-,N/A,Rain,Light Rain,40,2012-10-07 02:00:00
4:16 AM,46.4,46.4,100,29.92,2.8,ENE,6.9,-,N/A,Rain,Rain,60,2012-10-07 02:16:00
4:30 AM,46.4,46.4,100,29.92,3.1,NE,6.9,-,N/A,Rain,Rain,50,2012-10-07 02:30:00
4:46 AM,46.4,46.4,100,29.92,3.7,NE,6.9,-,N/A,Rain,Rain,40,2012-10-07 02:46:00
5:00 AM,46.4,46.4,100,29.92,3.7,NE,5.8,-,N/A,Rain,Rain,50,2012-10-07 03:00:00
5:05 AM,46.4,46.4,100,29.92,3.7,NE,8.1,-,N/A,Rain,Light Rain,50,2012-10-07 03:05:00
5:21 AM,46.4,46.4,100,29.92,4.3,NE,6.9,-,N/A,Rain,Rain,50,2012-10-07 03:21:00
5:28 AM,46.4,46.4,100,29.92,4.3,NE,8.1,-,N/A,Rain,Rain,50,2012-10-07 03:28:00
5:30 AM,46.4,46.4,100,29.92,4.3,NE,8.1,-,N/A,Rain,Rain,50,2012-10-07 03:30:00
5:44 AM,46.4,44.6,93,29.89,4.3,ENE,6.9,-,N/A,Rain,Rain,60,2012-10-07 03:44:00
5:48 AM,46.4,44.6,93,29.89,4.3,NE,6.9,-,N/A,Rain,Light Rain,50,2012-10-07 03:48:00
6:00 AM,46.4,44.6,93,29.89,4.3,ENE,6.9,-,N/A,Rain,Light Rain,60,2012-10-07 04:00:00
6:30 AM,46.4,44.6,93,29.89,5.0,NE,9.2,-,N/A,Rain,Light Rain,50,2012-10-07 04:30:00
6:47 AM,46.4,44.6,93,29.89,5.0,NE,8.1,-,N/A,Rain,Light Rain,40,2012-10-07 04:47:00
7:00 AM,46.4,44.6,93,29.89,3.7,NNE,8.1,-,N/A,Rain,Light Rain,20,2012-10-07 05:00:00
7:01 AM,46.4,44.6,93,29.89,3.7,NNE,6.9,-,N/A,Rain,Light Rain,30,2012-10-07 05:01:00
7:04 AM,46.4,44.6,93,29.89,3.7,NNE,8.1,-,N/A,Rain,Light Rain,20,2012-10-07 05:04:00
7:15 AM,46.4,44.6,93,29.89,3.1,NNE,8.1,-,N/A,Rain,Light Rain,30,2012-10-07 05:15:00
7:24 AM,46.4,44.6,93,29.89,3.7,NNE,9.2,-,N/A,Rain,Light Rain,30,2012-10-07 05:24:00
7:30 AM,46.4,44.6,93,29.89,3.7,NNE,9.2,-,N/A,Rain,Light Rain,30,2012-10-07 05:30:00
7:53 AM,46.4,44.6,93,29.89,3.7,NNE,9.2,-,N/A,Rain,Light Rain,30,2012-10-07 05:53:00
8:00 AM,46,44,92,29.91,4,NE,8.9,,,Rain,Light Rain,40,2012-10-07 06:00:00
8:00 AM,46.4,44.6,93,29.89,4.3,NNE,9.2,-,N/A,Rain,Light Rain,30,2012-10-07 06:00:00
8:13 AM,46.4,44.6,93,29.89,5.0,NNE,8.1,-,N/A,Rain,Light Rain,20,2012-10-07 06:13:00
8:30 AM,46.4,44.6,93,29.89,5.0,NNE,9.2,-,N/A,Rain,Light Rain,20,2012-10-07 06:30:00
8:42 AM,44.6,44.6,100,29.89,5.0,North,9.2,-,N/A,Rain,Light Rain,360,2012-10-07 06:42:00
8:52 AM,44.6,44.6,100,29.89,5.0,North,11.5,-,N/A,Rain,Light Rain,10,2012-10-07 06:52:00
9:00 AM,44.6,44.6,100,29.89,3.7,North,10.4,-,N/A,Rain,Rain,360,2012-10-07 07:00:00
9:14 AM,44.6,44.6,100,29.89,4.3,NNE,13.8,-,N/A,Rain,Light Rain,20,2012-10-07 07:14:00
9:30 AM,44.6,44.6,100,29.92,4.3,North,12.7,-,N/A,Rain,Light Rain,10,2012-10-07 07:30:00
10:00 AM,46.4,44.6,93,29.92,4.3,North,10.4,-,N/A,Rain,Light Rain,10,2012-10-07 08:00:00
10:30 AM,46.4,44.6,93,29.89,5.6,NNE,10.4,-,N/A,Rain,Light Rain,20,2012-10-07 08:30:00
11:00 AM,46.4,44.6,93,29.92,5.6,North,8.1,-,N/A,Rain,Light Rain,10,2012-10-07 09:00:00
11:18 AM,46.4,44.6,93,29.92,5.6,North,9.2,-,N/A,Rain,Light Rain,360,2012-10-07 09:18:00
11:30 AM,46.4,46.4,100,29.92,6.2,North,9.2,-,N/A,Rain,Light Rain,360,2012-10-07 09:30:00
12:00 PM,46.4,44.6,93,29.95,6.2,North,9.2,-,N/A,Rain,Light Rain,350,2012-10-07 10:00:00
12:30 PM,46.4,44.6,93,29.95,6.2,NNW,10.4,-,N/A,Rain,Light Rain,330,2012-10-07 10:30:00
12:47 PM,46.4,44.6,93,29.95,6.2,NNW,9.2,-,N/A,Rain,Light Rain,330,2012-10-07 10:47:00
1:00 PM,46.4,44.6,93,29.95,6.2,NNW,6.9,-,N/A,,Partly Cloudy,340,2012-10-07 11:00:00
1:30 PM,48.2,46.4,93,29.95,6.2,NNW,6.9,-,N/A,,Scattered Clouds,340,2012-10-07 11:30:00
1:46 PM,48.2,46.4,93,29.98,6.2,NNW,6.9,-,N/A,,Mostly Cloudy,340,2012-10-07 11:46:00
2:00 PM,48,46,89,29.99,16,NNW,8.9,,,,Partly Cloudy,340,2012-10-07 12:00:00
2:00 PM,48.2,46.4,93,29.98,6.2,NW,9.2,-,N/A,,Mostly Cloudy,320,2012-10-07 12:00:00
2:17 PM,50.0,46.4,87,29.98,6.2,NNW,10.4,-,N/A,,Scattered Clouds,340,2012-10-07 12:17:00
2:30 PM,50.0,46.4,87,29.98,6.2,NNW,9.2,-,N/A,,Mostly Cloudy,330,2012-10-07 12:30:00
3:00 PM,51.8,44.6,76,29.98,6.2,NNW,12.7,-,N/A,,Mostly Cloudy,330,2012-10-07 13:00:00
3:30 PM,51.8,44.6,76,30.01,6.2,NNW,15.0,-,N/A,,Mostly Cloudy,330,2012-10-07 13:30:00
4:00 PM,50.0,41.0,71,30.01,6.2,NW,9.2,-,N/A,,Scattered Clouds,310,2012-10-07 14:00:00
4:30 PM,51.8,39.2,62,30.01,6.2,WNW,11.5,-,N/A,,Partly Cloudy,300,2012-10-07 14:30:00
5:00 PM,50.0,42.8,76,30.01,6.2,West,9.2,-,N/A,,Partly Cloudy,280,2012-10-07 15:00:00
5:30 PM,51.8,41.0,67,30.04,6.2,WNW,11.5,-,N/A,,Partly Cloudy,290,2012-10-07 15:30:00
6:00 PM,50.0,41.0,71,30.04,6.2,West,8.1,-,N/A,,Partly Cloudy,280,2012-10-07 16:00:00
6:30 PM,50.0,41.0,71,30.06,6.2,West,9.2,-,N/A,,Partly Cloudy,280,2012-10-07 16:30:00
7:00 PM,48.2,41.0,76,30.06,-9999.0,West,8.1,-,N/A,,Clear,280,2012-10-07 17:00:00
7:30 PM,48.2,39.2,71,30.09,-9999.0,WNW,11.5,-,N/A,,Clear,290,2012-10-07 17:30:00
8:00 PM,47,41,71,30.13,31,West,8.9,,,,Mostly Cloudy,280,2012-10-07 18:00:00
8:00 PM,46.4,41.0,81,30.09,-9999.0,West,10.4,-,N/A,,Clear,270,2012-10-07 18:00:00
8:30 PM,44.6,41.0,87,30.09,-9999.0,West,9.2,-,N/A,,Clear,260,2012-10-07 18:30:00
9:00 PM,44.6,41.0,87,30.12,-9999.0,West,9.2,-,N/A,,Clear,260,2012-10-07 19:00:00
9:30 PM,46.4,41.0,81,30.12,-9999.0,WSW,12.7,-,N/A,,Clear,250,2012-10-07 19:30:00
10:00 PM,46.4,41.0,81,30.12,-9999.0,WSW,13.8,-,N/A,,Clear,250,2012-10-07 20:00:00
10:30 PM,46.4,39.2,76,30.12,-9999.0,WSW,13.8,-,N/A,,Clear,250,2012-10-07 20:30:00
11:00 PM,46.4,39.2,76,30.12,-9999.0,West,16.1,-,N/A,,Clear,260,2012-10-07 21:00:00
11:30 PM,46.4,39.2,76,30.12,-9999.0,West,16.1,-,N/A,,Clear,260,2012-10-07 21:30:00